CZ-4C DEB

Satellite information

Favourite Embed

Satellite Type and Status

DEBRISIN ORBIT

Key statistics

Satellite CZ-4C DEB at a glance.

Uptime

5462

Days in orbit

Revolutions

≈ 13.8

Per day

Orbit

SSO

Sun Synchronous Orbit

Inclination

98.8

Latest

Satellite identification and parameters

Extended collection of information and parameters for CZ-4C DEB.

Object identification

Identified? True

Debris? True

Object name: CZ-4C DEB

International designator: 2010-059G

Object number (NORAD): 38297

Object ID (CCSDS): 38297

Country: PEOPLES REPUBLIC OF CHINA (PRC)

Current information (Y/N): Y

RCS size: SMALL

Orbital parameters

Period: 104.493 minutes

Inclination: 98.759 deg

SMA: 7348.844 km

Apoapsis: 1145.417 km

Periapsis: 796.0 km

RAAN: 207.6501 deg

Eccentricy: 0.02377359

Argument of periapsis: 327.1836 deg

Mean anomaly: 31.474 deg

Mean motion: 13.78079414 rev/day

Mean motion (dot): 0.00000853 rev/day2

B* drag term: 0.00072076292 1/REarth

Two-line elements (TLE)

Creation date: Oct. 18, 2025, 2:17 a.m.

Reference frame: TEME

Reference center: EARTH

Epoch: Oct. 17, 2025, 5:19 p.m. UTC

TLE line 0: 0 CZ-4C DEB

TLE line 1: 1 38297U 10059G 25290.72203502 .00000853 00000-0 72076-3 0 9994

TLE line 2: 2 38297 98.7590 207.6501 0237736 327.1836 31.4740 13.78079414744837

Live tracking on map

Real-time ground track for satellite CZ-4C DEB.

In-orbit conjunctions

A list of the most updated potential collisions computed for object CZ-4C DEB.

Target Orbit TCA Probability of collision Miss distance Type
COSMOS 755 LEO 2025-05-25 22:04:03 0.0001848168 876.0 (m) PAYLOAD

Associated space launch

CZ-4C DEB was lifted into orbit during the mission ‘Long March 4C | Feng Yun-3B’, on board a Long March 4C space rocket.

The launch took place on Nov. 4, 2010, 6:37 p.m. from Launch Complex 7.

For more information about the launch, click the button.

Launch to space Long March 4C | Feng Yun-3B
Long March 4C | Feng Yun-3B

Agency: N/A

Status: Launch Successful

Launch date: Nov. 4, 2010, 6:37 p.m. UTC

Rocket: Long March 4C

Launch pad: Launch Complex 7

Location: Taiyuan Satellite Launch Center, People's Republic of China

...

Latest news about this satellite

There are no fresh news available about this satellite. Check back as we update our databases every day.


Newsletter sign-up

Weekly statistics, charts and insights to help you stay on top of the space industry.